Volver al catálogo

QIANFAN-77

ActivoComunicacionesPO
NORAD 63163·PAYLOAD·🇨🇳 China

Lanzado Mar 11, 2025 desde Wenchang Space Launch Site

Loading…

Próximos Pases (próximas 24 horas)

TLE

ActualizadoSource: Space-Track

Época: Sep 14, 2026, 12:52 UTC

1 63163U 25046E   26257.53676732  .00000095  00000-0  59308-4 0  9990
2 63163  88.9656 287.2295 0012743 304.4077  55.5895 13.96246157 86937

Sigue QIANFAN-77 en tiempo real con AllMySat

Download on the App Store